Retour au catalogue

STARLINK-2134

ActifCommunicationsVLEO
NORAD 47407·PAYLOAD·🇺🇸 United States

Lancé Jan 20, 2021 depuis Cape Canaveral Space Force Station

Loading…

Prochains Passages (prochaines 24 heures)

TLE

FraisSource: CelesTrak SupGP

Époque: Sep 15, 2026, 00:04 UTC

1 47407C 21005BL  26258.00326389  .00004819  00000+0  14246-3 0  2583
2 47407  53.1583 237.4112 0003816  58.4385 358.5315 15.34360803    14

Suivez STARLINK-2134 en temps réel avec AllMySat

Download on the App Store